Lid_Strength_Index
-1 -1 -1 -1 0 1 1 2 2 2 3 3 3 3 2 2 2 2 2 3 3 3 3 3 4 4 9
3 0 0 0 1 2 2 3 3 4 5 4 4 3 3 3 3 3 4 4 5 4 4 4 5 5 9
6 4 2 2 2 3 3 4 6 9 9 8 5 5 4 5 5 5 5 6 7 6 6 6 7 9 9
6 6 7 7 8 8 9 8 10 11 10 8 6 6 6 7 6 6 7 8 9 11 11 9 10 10 10
8 9 10 10 10 10 11 10 11 10 10 11 12 12 12 11 13 12 12 12 12 12 12 12 11 12 12
10 9 10 10 11 11 11 11 12 12 13 13 13 13 14 14 14 14 14 13 13 12 12 12 12 12 12
11 11 11 11 11 11 12 11 12 13 13 13 14 14 15 14 15 15 14 14 14 13 13 13 13 13 13
11 11 11 11 11 12 13 13 12 13 14 14 14 14 15 15 15 15 15 15 15 14 14 13 14 13 13
11 11 12 12 11 12 13 13 13 14 14 14 14 15 15 15 15 15 15 15 16 15 15 14 14 13 13
11 12 11 12 12 12 14 14 14 14 14 15 15 16 15 16 16 16 16 16 16 16 16 15 15 14 14
12 12 13 13 13 13 14 15 15 14 15 15 16 16 16 16 16 16 17 17 17 16 16 15 15 15 15
13 14 15 14 14 14 15 15 15 15 15 16 16 16 16 16 16 17 17 17 17 17 15 15 16 15 15
14 14 15 14 15 16 16 15 16 16 16 16 16 17 16 17 17 17 17 17 17 17 17 17 17 16 15
13 13 14 14 16 15 15 15 15 16 16 16 17 17 17 17 17 17 17 18 17 17 19 19 19 18 15
13 14 16 16 17 17 17 17 16 16 16 16 16 17 17 17 18 18 18 18 18 18 18 19 20 20 19
13 14 15 14 16 16 16 17 17 16 16 16 17 17 18 18 18 18 17 18 18 19 18 17 18 18 20